{"data":{"norad_id":62530,"epoch":"2026-05-24T07:17:04.864992Z","epoch_age_seconds":145901,"freshness":"FRESH","line1":"1 62530U 25004V   26144.30352853  .00016749  00000+0  61705-3 0  9991","line2":"2 62530  42.9992 152.7613 0001597 261.4109  98.6562 15.27566014 78023","mean_motion":15.27566014,"eccentricity":0.0001597,"inclination_deg":42.9992,"raan_deg":152.7613,"arg_perigee_deg":261.4109,"mean_anomaly_deg":98.6562,"bstar":0.00061705,"rev_number":7802,"period_min":94.267611795663,"perigee_km":481.99523736694,"apogee_km":484.1867135823,"semimajor_km":6861.2279754746,"source":"CELESTRAK","updated_at":"2026-05-25T13:38:19.705825Z"}}